TimeCDT,TemperatureF,Dew PointF,Humidity,Sea Level PressureIn,VisibilityMPH,Wind Direction,Wind SpeedMPH,Gust SpeedMPH,PrecipitationIn,Events,Conditions,WindDirDegrees,DateUTC
12:53 AM,64.0,62.1,93,29.92,10.0,SE,8.1,-,N/A,,Scattered Clouds,130,2014-03-15 05:53:00
1:02 AM,64.4,62.6,94,29.93,10.0,SE,8.1,-,N/A,,Mostly Cloudy,130,2014-03-15 06:02:00
1:53 AM,64.9,63.0,93,29.91,10.0,SE,5.8,-,N/A,,Mostly Cloudy,130,2014-03-15 06:53:00
2:10 AM,64.4,62.6,94,29.91,9.0,ESE,5.8,-,N/A,,Overcast,110,2014-03-15 07:10:00
2:53 AM,64.0,63.0,96,29.89,7.0,SE,9.2,-,N/A,,Scattered Clouds,130,2014-03-15 07:53:00
3:30 AM,64.4,62.6,94,29.89,5.0,SE,6.9,-,N/A,,Scattered Clouds,130,2014-03-15 08:30:00
3:53 AM,64.0,63.0,96,29.87,5.0,SE,6.9,-,N/A,,Mostly Cloudy,140,2014-03-15 08:53:00
4:19 AM,62.6,62.6,100,29.87,4.0,SE,4.6,-,N/A,,Overcast,130,2014-03-15 09:19:00
4:53 AM,64.9,64.0,97,29.86,2.5,SSE,8.1,-,N/A,,Overcast,150,2014-03-15 09:53:00
5:15 AM,64.4,64.4,100,29.86,3.0,SSE,6.9,-,N/A,,Overcast,150,2014-03-15 10:15:00
5:37 AM,64.4,64.4,100,29.86,2.5,SSE,6.9,-,N/A,,Overcast,160,2014-03-15 10:37:00
5:53 AM,64.9,64.9,100,29.86,1.8,SSE,6.9,-,N/A,,Overcast,150,2014-03-15 10:53:00
6:07 AM,64.4,64.4,100,29.87,3.0,SSE,6.9,-,N/A,,Overcast,150,2014-03-15 11:07:00
6:46 AM,64.4,64.4,100,29.87,7.0,SSE,8.1,-,N/A,,Overcast,150,2014-03-15 11:46:00
6:53 AM,64.9,64.9,100,29.87,8.0,SE,6.9,-,N/A,,Overcast,140,2014-03-15 11:53:00
7:53 AM,66.0,64.9,96,29.88,8.0,SE,5.8,-,N/A,,Overcast,140,2014-03-15 12:53:00
8:53 AM,66.0,64.9,96,29.89,8.0,SSE,5.8,-,N/A,,Overcast,160,2014-03-15 13:53:00
9:53 AM,68.0,64.9,90,29.89,10.0,SSE,9.2,-,N/A,,Mostly Cloudy,160,2014-03-15 14:53:00
10:05 AM,69.8,64.4,83,29.89,10.0,SSE,12.7,-,N/A,,Scattered Clouds,160,2014-03-15 15:05:00
10:53 AM,73.0,64.9,76,29.88,10.0,South,11.5,-,N/A,,Mostly Cloudy,170,2014-03-15 15:53:00
11:30 AM,75.2,62.6,65,29.88,10.0,SSE,17.3,26.5,N/A,,Scattered Clouds,160,2014-03-15 16:30:00
11:53 AM,77.0,63.0,62,29.87,10.0,SSE,18.4,25.3,N/A,,Scattered Clouds,150,2014-03-15 16:53:00
12:53 PM,78.1,64.0,62,29.84,10.0,South,19.6,25.3,N/A,,Mostly Cloudy,170,2014-03-15 17:53:00
1:53 PM,79.0,64.9,62,29.81,10.0,SSE,16.1,-,N/A,,Mostly Cloudy,160,2014-03-15 18:53:00
2:53 PM,81.0,64.9,58,29.77,10.0,SE,16.1,20.7,N/A,,Mostly Cloudy,140,2014-03-15 19:53:00
3:53 PM,82.0,64.9,56,29.74,10.0,SSE,9.2,18.4,N/A,,Clear,150,2014-03-15 20:53:00
4:53 PM,82.9,63.0,51,29.72,10.0,South,5.8,-,N/A,,Clear,170,2014-03-15 21:53:00
5:53 PM,84.0,64.0,51,29.70,10.0,SE,8.1,-,N/A,,Clear,140,2014-03-15 22:53:00
6:53 PM,81.0,66.9,62,29.70,10.0,SE,16.1,-,N/A,,Clear,130,2014-03-15 23:53:00
7:53 PM,75.9,66.9,74,29.73,8.0,SE,10.4,-,N/A,,Clear,140,2014-03-16 00:53:00
8:53 PM,73.0,68.0,84,29.73,8.0,SE,13.8,20.7,N/A,,Clear,140,2014-03-16 01:53:00
9:53 PM,72.0,68.0,87,29.73,7.0,SE,10.4,-,N/A,,Scattered Clouds,140,2014-03-16 02:53:00
10:01 PM,71.6,68.0,88,29.73,7.0,SE,12.7,-,N/A,,Mostly Cloudy,140,2014-03-16 03:01:00
10:09 PM,71.6,68.0,88,29.74,7.0,SE,12.7,-,N/A,,Scattered Clouds,140,2014-03-16 03:09:00
10:18 PM,71.6,68.0,88,29.74,7.0,SE,11.5,-,N/A,,Mostly Cloudy,140,2014-03-16 03:18:00
10:53 PM,72.0,68.0,87,29.75,8.0,SE,11.5,-,N/A,,Overcast,140,2014-03-16 03:53:00
11:53 PM,70.0,68.0,93,29.75,7.0,SSE,8.1,-,N/A,,Mostly Cloudy,160,2014-03-16 04:53:00